Location: Davayat
(45.9471°N, 3.1105°E)
Time: 23:22:56
(UTC+00:00)

Meteor 2-12 Rocket - Pass Details

Date: 22 April 2021
Orbit: 935 x 958 km, 82.5° (Epoch: 16 May)

Event Time Altitude Azimuth Distance (km) Brightness Sun altitude
Rises 00:03:51 0° 350° (N) 3,632 8.5 -31.7°
Reaches altitude 10° 00:06:21 10° 349° (N) 2,679 7.6 -31.7°
Enters shadow 00:11:42 69° 332° (NNW) 1,011 4.6 -31.6°
